Flag for Norway Weather past 2 weeks in Vadsø, Norway

Now
45 °F

Passing clouds.


Feels Like: 38 °F
Forecast: 34 / 46 °F
Wind: 14 mph from West

Location: Vadso

Current Time: Sep 19, 2014 at 6:37:17 PM

Latest Report: Sep 19, 2014 at 5:50 PM


Visibility: N/A

Pressure: 29.95 "Hg

Humidity: 66%

Dew point: 34 °F

Location of VadsøLocation

Historic Weather in Vadsø — Graph

°F

Vadsø temperature yesterday

Maximum temperature yesterday: 46 °F (at 10:50 AM)
Minimum temperature yesterday: 36 °F (at 5:50 AM)
Average temperature yesterday: 42 °F

Past Weeks' High & Low Weather Summary

 TemperatureHumidityPressure
High57 °F (Sep 11, 11:50 AM)100% (Sep 6, 8:50 AM)30.33 "Hg (Sep 6, 8:50 AM)
Low32 °F (Sep 6, 8:50 AM)37% (Sep 17, 8:50 AM)29.62 "Hg (Sep 11, 1:50 PM)
Average48 °F78%30.00 "Hg
* Reported Sep 4 4:50 PM — Sep 19 4:50 PM, Vadsø, Weather by CustomWeather, © 2014

Note: Actual official high and low records may vary slightly from our data, if they occured in-between our weather recording intervals... More about our weather records

Advertising

Vadsø weather history for previous 24 hours

 ConditionsComfort  
Time TempWeatherWind HumidityBarometerVisibility
4:50 PM
Sep 19
46 °FPassing clouds.16 mph57%29.95 "HgN/A
3:50 PM48 °FPassing clouds.17 mph58%29.98 "HgN/A
1:50 PM48 °FScattered clouds.15 mph58%29.98 "HgN/A
12:50 PM46 °FScattered showers. Partly sunny.17 mph57%29.98 "HgN/A
11:50 AM46 °FScattered showers. Scattered clouds.22 mph62%29.98 "HgN/A
10:50 AM46 °FPassing clouds.18 mph62%29.98 "HgN/A
9:50 AM45 °FSunny.20 mph66%30.01 "Hg10 mi
8:50 AM43 °FPassing clouds.16 mph71%30.01 "HgN/A
7:50 AM41 °FSunny.12 mph76%30.01 "Hg10 mi
5:50 AM37 °FSunny.14 mph81%30.04 "Hg10 mi
4:50 AM37 °FSunny.12 mph81%30.04 "Hg10 mi
12:50 AM39 °FPassing clouds.12 mph75%30.09 "HgN/A
11:50 PM
Sep 18
37 °FPassing clouds.9 mph81%30.09 "HgN/A
10:50 PM41 °FPassing clouds.12 mph76%30.09 "HgN/A
9:50 PM41 °FPassing clouds.12 mph76%30.12 "HgN/A
8:50 PM41 °FPassing clouds.12 mph70%30.12 "HgN/A
7:50 PM41 °FPassing clouds.14 mph70%30.12 "HgN/A
Weather by CustomWeather, © 2014

See weather overviewHow to use our weather pages